Airfield :
LOGIN :

Register | Disclaimer

   EN    FR    IT 

 










Legend :    VFR   Marginal VFR   IFR   Intensive IFR   Very Intensive IFR
Visi :
Ceiling :
>= 8 km
>= 3000ft
5 to 8 km
1000 to 3000 ft
1500m to 5 km
500 to 1000 ft
800 to 1500m
200 to 500 ft
< 800m
< 200 ft
Symbols :   Thunderstorms  Fog  Heavy snow  Heavy precipitations  Wind > 20 kt
SIGMETs :     Misc.  Thunderstorms  Icing  Turbulence  Mountain Waves  Volcanic Ashes






- Airport Elevation : 863 ft
- IATA code : ZAZ


LEZG - Zaragoza Aragon

CURRENT METAR :
  • 192030Z 23007KT CAVOK 15/01 Q1014

EXPIRED METARs :
  • 192000Z 23007KT CAVOK 16/01 Q1014
  • 191930Z 23006KT CAVOK 17/01 Q1014
  • 191900Z 23006KT CAVOK 17/03 Q1013
  • 191830Z 24005KT 9999 FEW085 19/01 Q1013

TAF TAF LEZG
Valid from the 19 at 18:00 until the 20 at 18:00 UTC


191700Z 1918/2018 30006KT 9999 FEW025 TX20/2014Z TN10/2005Z
PROB30
TEMPO 2012/2017 FEW030CB
BECMG 2013/2016 04006KT



MET'MAP, your aeronautical weather chart ! - Copyright ORBIFLY December 2007 - Disclaimer

ORBIFLY MET'MAP TEAM :

Programming & Development : Alexandra Zaïnal
Concept & original design : Baudouin d'Aumeries
Assistance for programming : Marc-Olivier Méhu
Technical & hardware support : Manuel Goepfert

Contact : metmap@orbifly.com




SOURCES & CREDITS :

   NOAA